Location: Lawrence
(38.9720°N, 95.2350°W)
Time: 09:18:01
(UTC-05:00)

JAS-1B - Visible Passes

Search period start: 29 August 2016 00:00
Search period end: 08 September 2016 00:00
Orbit: 912 x 1744 km, 99.0° (Epoch: 29 August)

Date Brightness Start Highest point End Pass type
(mag) Time Alt. Az. Time Alt. Az. Time Alt. Az.
29 Aug 10.7 04:22:58 10° ENE 04:24:27 11° NE 04:25:59 10° NE visible
29 Aug 8.1 06:06:48 10° SSE 06:13:05 61° ENE 06:20:35 10° N visible
29 Aug 10.6 21:33:54 10° NNW 21:40:06 20° NW 21:46:32 10° W visible
30 Aug 10.4 04:39:12 10° E 04:42:57 15° NE 04:46:59 10° NNE visible
30 Aug 10.8 21:53:52 10° NNW 21:58:41 15° NW 22:03:38 10° W visible
31 Aug 10.0 04:56:38 10° E 05:01:30 21° NE 05:06:57 10° N visible
31 Aug 9.4 20:19:52 10° N 20:28:55 49° WNW 20:38:12 10° SW visible
31 Aug 11.0 22:14:39 10° NNW 22:17:11 11° NW 22:19:47 10° WNW visible
01 Sep 9.6 05:14:31 10° ESE 05:20:08 28° ENE 05:26:35 10° N visible
01 Sep 9.8 20:39:12 10° N 20:47:46 38° WNW 20:56:32 10° SW visible
02 Sep 9.0 05:32:42 10° SE 05:38:50 38° ENE 05:46:03 10° N visible
02 Sep 10.1 20:58:37 10° N 21:06:32 30° WNW 21:14:35 10° WSW visible
03 Sep 8.5 05:51:09 10° SE 05:57:37 52° ENE 06:05:23 10° N visible
03 Sep 10.4 21:18:11 10° N 21:25:13 24° NW 21:32:23 10° WSW visible
04 Sep 10.5 04:24:21 10° ENE 04:27:46 14° NE 04:31:25 10° NNE visible
04 Sep 8.0 06:09:48 10° SSE 06:16:30 70° ENE 06:24:37 10° N visible
04 Sep 10.7 21:37:57 10° NNW 21:43:50 18° NW 21:49:48 10° W visible
05 Sep 10.2 04:41:31 10° E 04:46:18 19° NE 04:51:34 10° NNE visible
05 Sep 9.1 20:04:30 10° N 20:13:59 56° WNW 20:23:21 10° SW visible
05 Sep 10.9 21:58:06 10° NNW 22:02:22 14° NW 22:06:41 10° WNW visible
06 Sep 9.8 04:59:13 10° ESE 05:04:52 25° ENE 05:11:18 10° N visible
06 Sep 9.5 20:23:47 10° N 20:32:51 44° WNW 20:41:48 10° SW visible
06 Sep 11.1 22:20:02 10° NW 22:20:49 10° NW 22:21:35 10° NW visible
07 Sep 9.4 05:17:16 10° ESE 05:23:32 34° ENE 05:30:51 10° N visible
07 Sep 9.9 20:43:11 10° N 20:51:38 35° WNW 21:00:01 10° WSW visible
